period_start,C,m1,H,J0,J1,J2,J3,J4,J5,JA,JB,JC,JD,JJ,JK,JN,#
2014-04-29 00:00:03,0.01,1.73,0.00,15.73,22.67,24.02,6.17,31.08,1000.48,2056.03,2717.95,2913.93,3133.00,351.15,327.40,18.17,0000 0000 0000 0000 000000
2014-04-29 00:01:03,0.02,1.73,0.00,15.76,22.67,24.01,6.12,31.21,1000.49,2056.04,2717.69,2913.75,3133.00,350.00,326.86,18.17,0000 0000 0000 0000 000000
2014-04-29 00:02:03,0.13,1.73,0.00,15.80,22.67,24.06,6.05,31.00,1000.48,2056.03,2717.32,2913.47,3132.96,349.98,326.76,18.18,0000 0000 0000 0000 000000
2014-04-29 00:03:03,0.13,1.73,0.00,15.84,22.67,24.06,5.97,30.92,1000.48,2056.04,2717.12,2913.28,3132.96,349.33,325.69,18.18,0000 0000 0000 0000 000000
2014-04-29 00:04:04,0.08,1.73,0.00,15.81,22.67,24.04,6.02,30.96,1000.48,2056.02,2717.04,2913.13,3132.89,349.46,326.25,18.19,0000 0000 0000 0000 000000
2014-04-29 00:05:04,0.05,1.73,0.00,15.77,22.67,24.03,6.00,31.13,1000.50,2056.03,2717.01,2913.07,3132.71,349.22,326.07,18.20,0000 0000 0000 0000 000000
2014-04-29 00:06:04,0.07,1.73,0.00,15.75,22.67,24.07,5.85,31.17,1000.48,2056.04,2717.00,2913.03,3132.36,348.14,325.08,18.20,0000 0000 0000 0000 000000
2014-04-29 00:07:04,0.06,1.73,0.00,15.75,22.67,24.07,5.98,31.17,1000.45,2056.03,2717.00,2913.01,3132.14,349.68,326.51,18.21,0000 0000 0000 0000 000000
2014-04-29 00:08:04,0.01,1.73,0.00,15.76,22.67,24.07,6.21,31.46,1000.42,2056.03,2716.93,2913.00,3132.06,350.99,327.44,18.21,0000 0000 0000 0000 000000
2014-04-29 00:09:04,0.02,1.73,0.00,15.80,22.67,24.07,6.05,31.08,1000.40,2056.03,2716.59,2913.00,3132.02,349.37,326.16,18.22,0000 0000 0000 0000 000000
2014-04-29 00:10:05,0.09,1.73,0.00,15.82,22.67,24.03,6.14,31.46,1000.44,2056.03,2716.30,2912.99,3132.00,349.99,326.72,18.22,0000 0000 0000 0000 000000
2014-04-29 00:11:05,0.03,1.73,0.00,15.81,22.67,24.06,6.09,31.17,1000.37,2056.02,2716.13,2912.96,3132.00,349.66,326.41,18.23,0000 0000 0000 0000 000000
2014-04-29 00:12:05,0.01,1.73,0.00,15.71,22.67,24.09,6.06,30.92,1000.45,2056.04,2716.06,2912.91,3131.99,349.91,326.72,18.24,0000 0000 0000 0000 000000
2014-04-29 00:13:05,0.04,1.73,0.00,15.63,22.67,24.09,6.07,31.29,1000.44,2056.03,2716.02,2912.84,3131.99,349.30,326.29,18.24,0000 0000 0000 0000 000000
2014-04-29 00:14:05,0.02,1.73,0.00,15.59,22.67,24.11,6.14,31.13,1000.33,2056.02,2716.00,2912.65,3131.96,349.80,326.99,18.25,0000 0000 0000 0000 000000
2014-04-29 00:15:06,0.05,1.73,0.00,15.58,22.67,24.08,6.12,31.04,1000.29,2056.01,2715.98,2912.31,3131.94,350.42,327.00,18.25,0000 0000 0000 0000 000000
2014-04-29 00:16:06,0.09,1.73,0.00,15.61,22.68,24.04,6.13,30.96,1000.23,2056.01,2715.98,2912.17,3131.85,350.77,326.61,18.26,0000 0000 0000 0000 000000
2014-04-29 00:17:06,0.04,1.73,0.00,15.65,22.68,24.07,6.11,30.75,1000.17,2056.02,2715.94,2912.10,3131.63,350.25,327.14,18.27,0000 0000 0000 0000 000000
2014-04-29 00:18:06,0.08,1.73,0.00,15.73,22.68,24.12,6.07,31.21,1000.13,2056.01,2715.76,2912.06,3131.42,350.63,327.13,18.27,0000 0000 0000 0000 000000
2014-04-29 00:19:06,0.07,1.73,0.00,15.81,22.69,24.11,6.11,31.21,1000.09,2056.02,2715.57,2912.02,3131.21,349.97,326.56,18.28,0000 0000 0000 0000 000000
2014-04-29 00:20:06,0.08,1.73,0.00,15.83,22.69,24.06,6.03,31.21,1000.09,2056.01,2715.25,2912.00,3131.11,350.77,327.62,18.28,0000 0000 0000 0000 000000
2014-04-29 00:21:07,0.06,1.73,0.00,15.80,22.69,24.02,6.05,31.21,1000.12,2056.02,2715.09,2912.00,3131.05,349.86,326.52,18.29,0000 0000 0000 0000 000000
2014-04-29 00:22:07,0.04,1.73,0.00,15.81,22.69,24.00,6.13,31.00,1000.10,2056.03,2715.03,2912.00,3131.02,350.34,326.94,18.30,0000 0000 0000 0000 000000
2014-04-29 00:23:07,0.01,1.73,0.00,15.84,22.69,24.05,6.09,31.04,1000.05,2056.04,2715.01,2912.00,3131.00,350.25,326.81,18.30,0000 0000 0000 0000 000000
2014-04-29 00:24:07,0.01,1.73,0.00,15.84,22.69,24.08,6.25,31.29,1000.04,2056.03,2715.00,2912.00,3131.00,350.18,326.75,18.31,0000 0000 0000 0000 000000
2014-04-29 00:25:08,-0.01,1.73,0.00,15.86,22.69,24.18,6.11,31.08,1000.06,2056.03,2715.00,2912.00,3130.99,350.68,327.19,18.31,0000 0000 0000 0000 000000
2014-04-29 00:26:08,0.03,1.73,0.00,15.85,22.69,24.13,6.09,31.21,1000.11,2056.04,2714.90,2911.97,3130.98,350.35,327.17,18.32,0000 0000 0000 0000 000000
2014-04-29 00:27:08,0.01,1.73,0.00,15.85,22.69,24.09,6.07,31.25,1000.08,2056.03,2714.57,2911.76,3130.93,349.48,326.10,18.32,0000 0000 0000 0000 000000
2014-04-29 00:28:08,0.09,1.73,0.00,15.91,22.70,24.07,6.07,31.29,1000.08,2056.05,2714.26,2911.54,3130.72,349.44,325.81,18.33,0000 0000 0000 0000 000000
2014-04-29 00:29:09,0.21,1.74,0.00,15.94,22.69,24.13,6.13,31.42,1000.04,2056.05,2714.10,2911.32,3130.45,349.28,325.88,18.34,0000 0000 0000 0000 000000
2014-04-29 00:30:09,0.09,1.74,0.00,15.94,22.70,24.14,6.12,31.33,1000.03,2056.03,2714.04,2911.20,3130.20,349.96,326.67,18.34,0000 0000 0000 0000 000000
2014-04-29 00:31:09,0.07,1.74,0.00,15.96,22.70,24.17,6.14,31.33,1000.02,2056.03,2714.01,2911.11,3130.10,350.86,327.25,18.35,0000 0000 0000 0000 000000
2014-04-29 00:32:10,0.03,1.74,0.00,15.99,22.71,24.22,6.17,31.33,1000.03,2056.05,2714.00,2911.06,3130.05,350.80,327.57,18.35,0000 0000 0000 0000 000000
2014-04-29 00:33:10,0.02,1.74,0.00,16.00,22.71,24.20,6.07,31.21,1000.06,2056.03,2714.00,2911.02,3130.01,349.59,325.63,18.36,0000 0000 0000 0000 000000
2014-04-29 00:34:10,0.00,1.74,0.00,16.02,22.72,24.18,6.13,31.38,1000.11,2056.02,2713.96,2911.00,3130.00,350.09,326.49,18.37,0000 0000 0000 0000 000000
2014-04-29 00:35:10,0.01,1.74,0.00,15.98,22.72,24.19,6.06,31.21,1000.17,2056.03,2713.76,2910.99,3129.99,350.24,326.69,18.37,0000 0000 0000 0000 000000
2014-04-29 00:36:10,0.05,1.74,0.00,15.99,22.72,24.20,6.18,31.58,1000.28,2056.02,2713.38,2910.97,3129.98,349.56,326.27,18.38,0000 0000 0000 0000 000000
2014-04-29 00:37:11,0.07,1.74,0.00,15.98,22.72,24.25,6.08,31.25,1000.27,2056.03,2713.14,2910.96,3129.94,349.60,326.12,18.38,0000 0000 0000 0000 000000
2014-04-29 00:38:11,0.04,1.74,0.00,15.98,22.72,24.27,6.03,31.17,1000.20,2056.02,2713.05,2910.88,3129.79,349.73,325.96,18.39,0000 0000 0000 0000 000000
2014-04-29 00:39:11,0.05,1.74,0.00,16.02,22.72,24.28,5.99,31.25,1000.15,2056.00,2713.01,2910.65,3129.56,348.58,325.24,18.39,0000 0000 0000 0000 000000
2014-04-29 00:40:11,0.07,1.74,0.00,16.04,22.72,24.30,6.01,31.38,1000.18,2056.00,2712.99,2910.28,3129.29,349.41,326.20,18.40,0000 0000 0000 0000 000000
2014-04-29 00:41:12,0.16,1.74,0.00,16.08,22.72,24.30,6.08,31.33,1000.20,2056.01,2712.99,2910.12,3129.12,348.98,325.57,18.41,0000 0000 0000 0000 000000
2014-04-29 00:42:12,0.06,1.74,0.00,16.09,22.73,24.31,6.13,30.96,1000.20,2056.01,2712.93,2910.05,3129.06,349.43,325.82,18.41,0000 0000 0000 0000 000000
2014-04-29 00:43:12,0.03,1.74,0.00,16.04,22.74,24.29,5.98,31.21,1000.18,2056.00,2712.74,2910.01,3129.02,348.94,325.41,18.42,0000 0000 0000 0000 000000
2014-04-29 00:44:12,0.05,1.74,0.00,16.06,22.74,24.29,6.04,31.25,1000.09,2056.00,2712.39,2910.00,3129.00,349.63,326.00,18.42,0000 0000 0000 0000 000000
2014-04-29 00:45:13,0.06,1.74,0.00,16.06,22.74,24.32,5.91,31.17,1000.11,2056.00,2712.21,2910.00,3128.97,349.26,325.67,18.43,0000 0000 0000 0000 000000
2014-04-29 00:46:13,0.03,1.74,0.00,16.06,22.74,24.39,6.10,31.08,1000.10,2056.01,2712.09,2909.99,3128.98,349.76,326.13,18.44,0000 0000 0000 0000 000000
2014-04-29 00:47:13,0.03,1.74,0.00,16.09,22.74,24.41,6.02,31.38,1000.15,2056.00,2712.03,2909.95,3128.97,349.35,325.41,18.44,0000 0000 0000 0000 000000
2014-04-29 00:48:14,0.01,1.74,0.00,16.08,22.75,24.39,6.15,31.33,1000.07,2056.00,2712.00,2909.89,3128.82,350.55,326.52,18.45,0000 0000 0000 0000 000000
2014-04-29 00:49:14,0.04,1.74,0.00,16.12,22.75,24.40,6.15,31.54,1000.05,2056.00,2711.97,2909.60,3128.44,350.00,326.45,18.45,0000 0000 0000 0000 000000
2014-04-29 00:50:14,0.15,1.74,0.00,16.12,22.75,24.34,6.10,31.08,1000.03,2056.00,2711.92,2909.31,3128.19,349.88,326.27,18.46,0000 0000 0000 0000 000000
2014-04-29 00:51:14,0.11,1.74,0.00,16.02,22.75,24.36,6.02,31.33,1000.05,2056.00,2711.70,2909.17,3128.07,349.13,325.56,18.46,0000 0000 0000 0000 000000
2014-04-29 00:52:14,0.08,1.74,0.00,15.94,22.76,24.35,6.02,31.13,1000.07,2056.00,2711.33,2909.09,3128.03,349.80,326.61,18.47,0000 0000 0000 0000 000000
2014-04-29 00:53:14,0.09,1.74,0.00,15.94,22.77,24.33,6.10,31.46,1000.04,2056.00,2711.13,2909.04,3128.00,349.34,325.86,18.48,0000 0000 0000 0000 000000
2014-04-29 00:54:15,0.04,1.74,0.00,15.96,22.77,24.35,6.06,31.46,1000.05,2056.00,2711.05,2909.01,3128.00,350.09,326.53,18.48,0000 0000 0000 0000 000000
2014-04-29 00:55:15,0.02,1.74,0.00,15.97,22.77,24.33,6.23,31.33,1000.06,2056.00,2711.01,2909.00,3128.00,351.14,327.50,18.49,0000 0000 0000 0000 000000
2014-04-29 00:56:15,0.00,1.74,0.00,15.99,22.77,24.32,6.03,31.42,1000.06,2056.00,2711.00,2909.00,3127.97,350.59,326.64,18.49,0000 0000 0000 0000 000000
2014-04-29 00:57:15,0.00,1.74,0.00,16.02,22.77,24.29,6.04,31.21,1000.08,2056.00,2710.99,2909.00,3127.95,349.19,326.56,18.50,0000 0000 0000 0000 000000
2014-04-29 00:58:16,0.01,1.74,0.00,16.09,22.77,24.30,6.07,31.42,1000.07,2056.00,2710.85,2908.99,3127.79,350.27,326.28,18.51,0000 0000 0000 0000 000000
2014-04-29 00:59:16,0.06,1.74,0.00,16.15,22.79,24.36,6.08,31.33,1000.05,2056.00,2710.50,2908.91,3127.49,351.08,327.09,18.51,0000 0000 0000 0000 000000
2014-04-29 01:00:16,0.13,1.75,0.00,16.23,22.79,24.37,6.02,31.50,1000.03,2056.00,2710.24,2908.75,3127.24,349.51,325.62,18.52,0000 0000 0000 0000 000000
2014-04-29 01:01:16,0.12,1.75,0.00,16.26,22.79,24.40,6.13,31.13,1000.03,2056.00,2710.09,2908.42,3127.09,350.78,326.10,18.52,0000 0000 0000 0000 000000
2014-04-29 01:02:17,0.14,1.75,0.00,16.28,22.79,24.42,5.98,31.13,1000.02,2056.00,2710.03,2908.17,3127.03,348.61,325.16,18.53,0000 0000 0000 0000 000000
2014-04-29 01:03:17,0.07,1.75,0.00,16.25,22.79,24.39,6.05,31.21,1000.02,2056.00,2709.99,2908.06,3127.01,350.40,326.48,18.53,0000 0000 0000 0000 000000
2014-04-29 01:04:17,0.03,1.75,0.00,16.22,22.80,24.38,6.15,31.17,1000.02,2056.00,2709.98,2908.03,3127.00,351.04,327.11,18.54,0000 0000 0000 0000 000000
2014-04-29 01:05:17,0.01,1.75,0.00,16.20,22.80,24.43,6.06,31.17,1000.02,2056.00,2709.92,2908.00,3126.96,349.62,325.82,18.55,0000 0000 0000 0000 000000
2014-04-29 01:06:18,0.02,1.75,0.00,16.23,22.80,24.48,6.04,31.21,1000.02,2056.00,2709.63,2908.00,3126.90,350.94,327.01,18.55,0000 0000 0000 0000 000000
2014-04-29 01:07:18,0.06,1.75,0.00,16.25,22.81,24.49,6.18,31.17,1000.02,2055.99,2709.29,2907.98,3126.62,350.78,326.83,18.56,0000 0000 0000 0000 000000
2014-04-29 01:08:18,0.11,1.75,0.00,16.29,22.82,24.48,6.15,31.21,1000.02,2055.98,2709.12,2907.95,3126.29,350.41,326.56,18.56,0000 0000 0000 0000 000000
2014-04-29 01:09:18,0.07,1.75,0.00,16.30,22.82,24.48,6.20,31.13,1000.01,2055.99,2709.05,2907.90,3126.12,350.25,326.65,18.57,0000 0000 0000 0000 000000
2014-04-29 01:10:19,0.06,1.75,0.00,16.31,22.82,24.51,6.16,31.17,1000.01,2055.99,2709.01,2907.62,3126.04,349.73,326.36,18.58,0000 0000 0000 0000 000000
2014-04-29 01:11:19,0.09,1.75,0.00,16.31,22.82,24.56,6.04,31.29,1000.03,2055.98,2709.00,2907.31,3126.01,349.44,325.52,18.58,0000 0000 0000 0000 000000
2014-04-29 01:12:19,0.08,1.75,0.00,16.34,22.82,24.59,6.11,30.83,1000.02,2055.99,2708.99,2907.13,3126.00,350.64,326.54,18.59,0000 0000 0000 0000 000000
2014-04-29 01:13:20,0.05,1.75,0.00,16.37,22.83,24.59,6.09,31.08,1000.02,2055.99,2708.96,2907.07,3126.00,351.00,327.15,18.59,0000 0000 0000 0000 000000
2014-04-29 01:14:20,0.01,1.75,0.00,16.37,22.84,24.55,6.18,31.42,1000.02,2055.99,2708.79,2907.02,3125.99,349.71,326.18,18.60,0000 0000 0000 0000 000000
2014-04-29 01:15:20,0.04,1.75,0.00,16.35,22.84,24.55,6.17,31.54,1000.01,2055.99,2708.44,2907.00,3125.96,350.19,326.18,18.61,0000 0000 0000 0000 000000
2014-04-29 01:16:20,0.06,1.75,0.00,16.33,22.84,24.56,5.98,31.17,1000.03,2055.98,2708.18,2906.99,3125.73,349.27,325.34,18.61,0000 0000 0000 0000 000000
2014-04-29 01:17:21,0.08,1.75,0.00,16.34,22.84,24.56,6.09,31.42,1000.05,2055.98,2708.07,2906.99,3125.43,349.73,325.77,18.62,0000 0000 0000 0000 000000
2014-04-29 01:18:21,0.06,1.75,0.00,16.32,22.85,24.59,6.05,31.13,1000.03,2055.99,2708.03,2906.98,3125.17,349.57,325.63,18.62,0000 0000 0000 0000 000000
2014-04-29 01:19:21,0.05,1.75,0.00,16.34,22.85,24.65,6.10,31.04,1000.02,2055.99,2708.00,2906.94,3125.07,350.51,326.15,18.63,0000 0000 0000 0000 000000
2014-04-29 01:20:22,0.03,1.75,0.00,16.34,22.86,24.69,6.25,31.25,1000.04,2055.98,2707.96,2906.78,3125.03,350.36,326.34,18.63,0000 0000 0000 0000 000000
2014-04-29 01:21:22,0.06,1.75,0.00,16.34,22.87,24.71,6.04,31.33,1000.06,2055.98,2707.87,2906.50,3125.02,350.56,326.54,18.64,0000 0000 0000 0000 000000
2014-04-29 01:22:22,0.08,1.75,0.00,16.35,22.87,24.67,6.09,31.17,1000.04,2055.98,2707.53,2906.20,3125.00,349.56,325.59,18.65,0000 0000 0000 0000 000000
2014-04-29 01:23:22,0.12,1.75,0.00,16.39,22.87,24.71,6.04,31.08,1000.04,2055.97,2707.24,2906.08,3124.98,350.07,326.12,18.65,0000 0000 0000 0000 000000
2014-04-29 01:24:23,0.07,1.76,0.00,16.39,22.87,24.69,5.84,31.29,1000.10,2055.97,2707.09,2906.05,3124.96,349.21,325.25,18.66,0000 0000 0000 0000 000000
2014-04-29 01:25:23,0.04,1.76,0.00,16.41,22.88,24.65,6.06,31.29,1000.16,2055.98,2707.03,2906.02,3124.76,350.15,326.11,18.66,0000 0000 0000 0000 000000
2014-04-29 01:26:23,0.04,1.76,0.00,16.44,22.89,24.62,6.14,31.63,1000.21,2055.93,2707.01,2906.00,3124.40,350.49,326.25,18.67,0000 0000 0000 0000 000000
2014-04-29 01:27:24,0.03,1.76,0.00,16.46,22.89,24.68,6.14,31.17,1000.22,2055.92,2707.00,2905.98,3124.18,350.71,326.30,18.68,0000 0000 0000 0000 000000
2014-04-29 01:28:24,0.03,1.76,0.00,16.47,22.89,24.76,6.12,31.29,1000.20,2055.94,2706.99,2905.98,3124.09,349.94,325.64,18.68,0000 0000 0000 0000 000000
2014-04-29 01:29:24,0.02,1.76,0.00,16.45,22.90,24.74,6.07,31.58,1000.20,2055.89,2706.94,2905.95,3124.03,349.54,325.47,18.69,0000 0000 0000 0000 000000
2014-04-29 01:30:24,0.01,1.76,0.00,16.46,22.90,24.69,6.16,31.17,1000.22,2055.85,2706.64,2905.83,3124.01,350.66,326.56,18.69,0000 0000 0000 0000 000000
2014-04-29 01:31:25,0.07,1.76,0.00,16.48,22.91,24.73,6.10,30.96,1000.20,2055.80,2706.30,2905.50,3123.99,350.22,326.11,18.70,0000 0000 0000 0000 000000
2014-04-29 01:32:25,0.09,1.76,0.00,16.47,22.92,24.75,6.08,31.25,1000.28,2055.74,2706.11,2905.21,3123.97,349.87,326.21,18.70,0000 0000 0000 0000 000000
2014-04-29 01:33:25,0.07,1.76,0.00,16.44,22.92,24.74,5.98,31.13,1000.29,2055.71,2706.04,2905.09,3123.94,349.38,325.44,18.71,0000 0000 0000 0000 000000
2014-04-29 01:34:26,0.02,1.76,0.00,16.42,22.92,24.70,6.07,31.21,1000.20,2055.68,2705.99,2905.03,3123.85,350.02,326.00,18.72,0000 0000 0000 0000 000000
2014-04-29 01:35:26,-0.00,1.76,0.00,16.45,22.92,24.70,6.04,31.17,1000.22,2055.69,2705.96,2905.01,3123.61,349.84,326.15,18.72,0000 0000 0000 0000 000000
2014-04-29 01:36:26,0.04,1.76,0.00,16.47,22.93,24.69,6.06,31.17,1000.17,2055.66,2705.85,2905.00,3123.28,350.63,326.24,18.73,0000 0000 0000 0000 000000
2014-04-29 01:37:26,0.04,1.76,0.00,16.43,22.94,24.68,5.99,31.04,1000.11,2055.45,2705.57,2904.99,3123.12,349.81,326.07,18.73,0000 0000 0000 0000 000000
2014-04-29 01:38:26,-0.08,1.76,0.00,16.46,22.94,24.72,6.13,30.92,1000.08,2055.33,2705.24,2904.99,3123.06,350.32,325.93,18.74,0000 0000 0000 0000 000000
2014-04-29 01:39:27,-0.03,1.76,0.00,16.46,22.94,24.75,6.01,31.08,1000.05,2055.37,2705.09,2904.97,3123.02,350.17,326.04,18.75,0000 0000 0000 0000 000000
2014-04-29 01:40:27,0.09,1.76,0.00,16.47,22.94,24.78,6.07,31.25,1000.06,2055.48,2705.03,2904.86,3123.00,350.27,326.13,18.75,0000 0000 0000 0000 000000
2014-04-29 01:41:27,0.09,1.76,0.00,16.47,22.95,24.75,6.09,31.29,1000.09,2055.44,2705.01,2904.66,3123.00,349.91,325.88,18.76,0000 0000 0000 0000 000000
2014-04-29 01:42:28,0.07,1.76,0.00,16.46,22.96,24.77,6.17,31.25,1000.15,2055.42,2704.99,2904.35,3122.99,349.83,325.76,18.76,0000 0000 0000 0000 000000
2014-04-29 01:43:28,0.06,1.76,0.00,16.49,22.97,24.82,6.25,31.42,1000.17,2055.38,2704.95,2904.17,3122.96,350.59,326.44,18.77,0000 0000 0000 0000 000000
2014-04-29 01:44:28,0.03,1.76,0.00,16.50,22.97,24.79,6.02,31.08,1000.22,2055.42,2704.87,2904.09,3122.89,348.94,325.18,18.78,0000 0000 0000 0000 000000
2014-04-29 01:45:28,0.08,1.76,0.00,16.49,22.97,24.77,6.01,31.21,1000.26,2055.32,2704.59,2904.04,3122.55,349.67,325.55,18.78,0000 0000 0000 0000 000000
2014-04-29 01:46:29,0.01,1.76,0.00,16.48,22.97,24.75,6.15,31.17,1000.25,2055.24,2704.35,2904.01,3122.29,350.51,326.34,18.79,0000 0000 0000 0000 000000
2014-04-29 01:47:29,0.04,1.76,0.00,16.48,22.99,24.71,6.04,31.17,1000.19,2055.24,2704.17,2903.99,3122.14,350.04,326.39,18.79,0000 0000 0000 0000 000000
2014-04-29 01:48:29,0.03,1.76,0.00,16.49,22.99,24.72,6.17,31.25,1000.17,2055.15,2704.06,2903.99,3122.05,351.07,326.89,18.80,0000 0000 0000 0000 000000
2014-04-29 01:49:29,-0.01,1.76,0.00,16.47,22.99,24.73,6.20,31.29,1000.16,2055.15,2704.02,2903.98,3122.02,350.01,325.50,18.80,0000 0000 0000 0000 000000
2014-04-29 01:50:30,0.01,1.76,0.00,16.50,22.99,24.78,6.01,31.21,1000.10,2055.12,2703.99,2903.81,3122.00,349.28,325.19,18.81,0000 0000 0000 0000 000000
2014-04-29 01:51:30,0.02,1.76,0.00,16.51,23.00,24.81,6.21,31.08,1000.13,2055.08,2703.81,2903.51,3121.96,349.82,325.82,18.82,0000 0000 0000 0000 000000
2014-04-29 01:52:30,0.10,1.76,0.00,16.49,23.00,24.86,6.10,31.13,1000.20,2055.06,2703.41,2903.22,3121.65,349.69,325.61,18.82,0000 0000 0000 0000 000000
2014-04-29 01:53:31,0.17,1.76,0.00,16.49,23.02,24.90,6.19,31.08,1000.19,2055.06,2703.17,2903.08,3121.31,350.90,326.65,18.83,0000 0000 0000 0000 000000
2014-04-29 01:54:31,0.11,1.76,0.00,16.48,23.02,24.87,5.89,30.88,1000.22,2055.03,2703.06,2903.03,3121.11,348.24,324.74,18.83,0000 0000 0000 0000 000000
2014-04-29 01:55:31,0.04,1.76,0.00,16.49,23.02,24.89,6.13,31.21,1000.30,2055.02,2703.00,2902.99,3121.04,350.13,325.60,18.84,0000 0000 0000 0000 000000
2014-04-29 01:56:31,0.02,1.76,0.00,16.50,23.02,24.87,6.07,31.21,1000.43,2055.02,2702.84,2902.92,3120.98,350.12,325.91,18.85,0000 0000 0000 0000 000000
2014-04-29 01:57:32,0.05,1.76,0.00,16.51,23.02,24.84,6.00,31.04,1000.40,2055.01,2702.36,2902.81,3120.97,350.24,326.16,18.85,0000 0000 0000 0000 000000
2014-04-29 01:58:32,0.11,1.76,0.00,16.54,23.04,24.82,6.23,31.04,1000.37,2055.00,2702.15,2902.53,3120.93,350.74,326.60,18.86,0000 0000 0000 0000 000000
2014-04-29 01:59:33,0.12,1.76,0.00,16.54,23.04,24.85,5.96,31.08,1000.44,2055.00,2702.06,2902.23,3120.68,347.96,324.02,18.86,0000 0000 0000 0000 000000
2014-04-29 02:00:33,0.11,1.77,0.00,16.56,23.04,24.84,6.03,31.29,1000.41,2055.00,2702.02,2902.10,3120.36,349.24,325.18,18.87,0000 0000 0000 0000 000000
2014-04-29 02:01:33,0.09,1.77,0.00,16.56,23.04,24.86,6.14,31.25,1000.44,2055.01,2702.01,2902.04,3120.14,350.41,326.51,18.87,0000 0000 0000 0000 000000
2014-04-29 02:02:33,0.05,1.77,0.00,16.56,23.05,24.81,6.07,31.08,1000.45,2055.00,2701.95,2902.01,3120.05,350.28,326.30,18.88,0000 0000 0000 0000 000000
2014-04-29 02:03:34,0.01,1.77,0.00,16.54,23.06,24.83,6.17,31.25,1000.49,2055.00,2701.91,2902.00,3120.02,350.56,326.62,18.89,0000 0000 0000 0000 000000
2014-04-29 02:04:34,0.02,1.77,0.00,16.57,23.07,24.85,6.12,30.88,1000.45,2055.00,2701.69,2902.00,3120.00,350.24,326.11,18.89,0000 0000 0000 0000 000000
2014-04-29 02:05:34,0.04,1.77,0.00,16.59,23.07,24.80,6.03,30.96,1000.45,2055.00,2701.34,2901.99,3119.99,349.86,326.01,18.90,0000 0000 0000 0000 000000
2014-04-29 02:06:35,0.06,1.77,0.00,16.59,23.07,24.83,6.15,31.13,1000.42,2055.00,2701.14,2901.90,3119.95,350.50,326.37,18.90,0000 0000 0000 0000 000000
2014-04-29 02:07:35,0.07,1.77,0.00,16.59,23.07,24.83,6.02,31.17,1000.41,2055.00,2701.05,2901.69,3119.82,348.84,324.57,18.91,0000 0000 0000 0000 000000
2014-04-29 02:08:35,0.12,1.77,0.00,16.57,23.09,24.90,6.12,30.96,1000.39,2055.00,2701.01,2901.37,3119.49,349.79,325.78,18.92,0000 0000 0000 0000 000000
2014-04-29 02:09:35,0.11,1.77,0.00,16.60,23.09,24.91,6.04,31.00,1000.43,2055.00,2700.99,2901.21,3119.31,350.08,325.59,18.92,0000 0000 0000 0000 000000
2014-04-29 02:10:36,0.07,1.77,0.00,16.61,23.09,24.91,6.01,30.92,1000.43,2055.00,2700.82,2901.09,3119.12,349.70,325.14,18.93,0000 0000 0000 0000 000000
2014-04-29 02:11:36,0.09,1.77,0.00,16.65,23.09,24.92,6.10,30.88,1000.41,2055.00,2700.51,2901.03,3119.04,350.89,326.01,18.93,0000 0000 0000 0000 000000
2014-04-29 02:12:36,0.07,1.77,0.00,16.65,23.09,24.92,6.04,31.33,1000.41,2055.00,2700.22,2901.01,3119.01,348.82,325.46,18.94,0000 0000 0000 0000 000000
2014-04-29 02:13:37,0.05,1.77,0.00,16.68,23.11,24.95,6.10,31.04,1000.43,2055.00,2700.08,2901.00,3119.00,349.11,324.93,18.95,0000 0000 0000 0000 000000
2014-04-29 02:14:37,0.02,1.77,0.00,16.67,23.12,24.97,6.12,30.75,1000.47,2055.00,2700.03,2900.99,3118.99,351.15,326.78,18.95,0000 0000 0000 0000 000000
2014-04-29 02:15:37,0.03,1.77,0.00,16.66,23.12,24.98,6.03,30.96,1000.49,2055.00,2699.98,2900.82,3118.72,349.57,325.39,18.96,0000 0000 0000 0000 000000
2014-04-29 02:16:37,0.09,1.77,0.00,16.66,23.12,24.95,6.03,30.79,1000.49,2055.00,2699.95,2900.56,3118.34,351.04,326.77,18.96,0000 0000 0000 0000 000000
2014-04-29 02:17:37,0.14,1.77,0.00,16.63,23.12,24.96,6.20,31.08,1000.49,2055.00,2699.82,2900.29,3118.17,351.16,326.96,18.97,0000 0000 0000 0000 000000
2014-04-29 02:18:38,0.11,1.77,0.00,16.60,23.13,24.99,6.17,30.88,1000.50,2055.00,2699.56,2900.13,3118.08,351.00,326.80,18.97,0000 0000 0000 0000 000000
2014-04-29 02:19:38,0.09,1.77,0.00,16.58,23.14,24.95,6.06,30.79,1000.50,2055.00,2699.26,2900.05,3118.03,349.75,325.94,18.98,0000 0000 0000 0000 000000
2014-04-29 02:20:38,0.07,1.77,0.00,16.64,23.14,24.98,6.13,31.25,1000.50,2055.00,2699.10,2900.02,3117.99,350.28,326.52,18.99,0000 0000 0000 0000 000000
2014-04-29 02:21:39,0.03,1.78,0.00,16.69,23.14,25.04,5.95,30.92,1000.50,2055.00,2699.02,2900.00,3117.96,348.93,325.18,18.99,0000 0000 0000 0000 000000
2014-04-29 02:22:39,0.01,1.78,0.00,16.70,23.14,25.04,6.09,31.29,1000.50,2054.99,2699.00,2900.00,3117.91,350.76,326.47,19.00,0000 0000 0000 0000 000000
2014-04-29 02:23:39,0.00,1.78,0.00,16.72,23.15,25.00,6.07,31.00,1000.49,2054.98,2698.98,2900.00,3117.85,350.12,326.00,19.00,0000 0000 0000 0000 000000
2014-04-29 02:24:40,0.02,1.78,0.00,16.71,23.17,25.06,6.02,31.29,1000.50,2054.99,2698.73,2899.91,3117.51,348.91,324.78,19.01,0000 0000 0000 0000 000000
2014-04-29 02:25:40,0.14,1.78,0.00,16.71,23.17,25.01,6.06,31.33,1000.50,2054.99,2698.29,2899.49,3117.20,350.10,325.85,19.02,0000 0000 0000 0000 000000
2014-04-29 02:26:40,0.20,1.78,0.00,16.70,23.17,24.95,6.09,31.46,1000.49,2054.97,2698.10,2899.20,3117.07,350.36,326.09,19.02,0000 0000 0000 0000 000000
2014-04-29 02:27:40,0.11,1.78,0.00,16.70,23.18,24.97,6.16,31.33,1000.48,2054.97,2698.03,2899.07,3117.02,349.22,324.91,19.03,0000 0000 0000 0000 000000
2014-04-29 02:28:41,0.05,1.78,0.00,16.68,23.18,25.02,6.05,31.00,1000.50,2054.99,2697.95,2899.02,3117.00,349.34,325.74,19.03,0000 0000 0000 0000 000000
2014-04-29 02:29:41,0.03,1.78,0.00,16.70,23.19,25.03,5.94,31.08,1000.50,2054.96,2697.80,2899.00,3117.00,350.07,325.51,19.04,0000 0000 0000 0000 000000
2014-04-29 02:30:42,0.01,1.78,0.00,16.72,23.19,24.98,6.10,31.00,1000.50,2054.93,2697.46,2898.99,3116.79,350.38,326.09,19.04,0000 0000 0000 0000 000000
2014-04-29 02:31:42,0.08,1.78,0.00,16.72,23.19,24.97,5.98,30.96,1000.50,2054.93,2697.17,2898.96,3116.39,349.87,325.62,19.05,0000 0000 0000 0000 000000
2014-04-29 02:32:42,0.11,1.78,0.00,16.73,23.20,24.99,6.20,31.38,1000.50,2054.89,2697.06,2898.90,3116.18,349.76,325.49,19.06,0000 0000 0000 0000 000000
2014-04-29 02:33:42,0.04,1.78,0.00,16.74,23.21,25.00,5.99,31.04,1000.50,2054.81,2697.01,2898.57,3116.08,348.37,324.19,19.06,0000 0000 0000 0000 000000
2014-04-29 02:34:43,0.05,1.78,0.00,16.73,23.22,25.00,5.96,31.21,1000.50,2054.86,2696.99,2898.29,3116.03,349.33,325.10,19.07,0000 0000 0000 0000 000000
2014-04-29 02:35:43,0.11,1.78,0.00,16.73,23.22,25.05,6.12,31.04,1000.50,2054.88,2696.94,2898.13,3116.01,350.14,325.86,19.07,0000 0000 0000 0000 000000